Flag for Austria Weather past 2 weeks in Waidhofen an der Ybbs, Lower Austria, Austria

Now
35 °F

Overcast.


Feels Like: 32 °F
Forecast: 21 / 36 °F
Wind: 3 mph from West

Location: Amstetten

Current Time: Jan 28, 2015 at 7:57:26 AM

Latest Report: Jan 28, 2015 at 7:00 AM


Visibility: N/A

Pressure: 30.15 "Hg

Humidity: 90%

Dew point: 32 °F

Location of Waidhofen an der YbbsLocation

Historic Weather in Waidhofen an der Ybbs — Graph

°F

Waidhofen an der Ybbs temperature yesterday

Maximum temperature yesterday: 36 °F (at 4:00 PM)
Minimum temperature yesterday: 28 °F (at 1:00 AM)
Average temperature yesterday: 33 °F

Past Weeks' High & Low Weather Summary

 TemperatureHumidityPressure
High49 °F (Jan 13, 2:00 PM)100% (Jan 27, 7:00 AM)30.37 "Hg (Jan 27, 7:00 AM)
Low26 °F (Jan 14, 5:00 AM)48% (Jan 13, 2:00 PM)29.74 "Hg (Jan 17, 4:00 AM)
Average36 °F89%30.05 "Hg
* Reported Jan 13 6:00 AM — Jan 28 6:00 AM, Waidhofen an der Ybbs, Weather by CustomWeather, © 2014

Note: Actual official high and low records may vary slightly from our data, if they occured in-between our weather recording intervals... More about our weather records

Advertising

Waidhofen an der Ybbs weather history for previous 24 hours

 ConditionsComfort  
Time TempWeatherWind HumidityBarometerVisibility
6:00 AM
Jan 28
35 °FChilly.3 mph89%30.14 "HgN/A
5:00 AM34 °FChilly.3 mph90%30.15 "HgN/A
4:00 AM34 °FChilly.2 mph92%30.15 "HgN/A
3:00 AM34 °FFog.2 mph88%30.16 "HgN/A
2:00 AM34 °FChilly.3 mph88%30.16 "HgN/A
1:00 AM34 °FChilly.3 mph89%30.16 "HgN/A
12:00 AM35 °FChilly.3 mph86%30.16 "HgN/A
11:00 PM
Jan 27
35 °FChilly.5 mph88%30.15 "HgN/A
10:00 PM34 °FChilly.3 mph88%30.14 "HgN/A
9:00 PM35 °FChilly.3 mph89%30.14 "HgN/A
8:00 PM35 °FChilly.2 mph89%30.13 "HgN/A
7:00 PM35 °FChilly.5 mph89%30.12 "HgN/A
6:00 PM35 °FChilly.3 mph86%30.10 "HgN/A
5:00 PM35 °FChilly.5 mph91%30.09 "HgN/A
4:00 PM36 °FChilly.5 mph84%30.07 "HgN/A
2:00 PMN/APassing clouds.14 mphN/AN/A2 mi
12:00 PM36 °FSprinkles. Cloudy.5 mph90%30.08 "HgN/A
11:00 AM36 °FFog.5 mph90%30.08 "HgN/A
10:00 AM35 °FChilly.3 mph90%30.07 "HgN/A
9:00 AM35 °FChilly.5 mph92%30.07 "HgN/A
8:00 AM34 °FFog.3 mph97%30.06 "HgN/A
7:00 AM32 °FLight snow. Overcast.1 mph100%30.04 "HgN/A
Weather by CustomWeather, © 2014

See weather overviewHow to use our weather pages